Location: ?????????
(44.2517°N, 135.2292°E)
Time: 01:46:24
(UTC+00:00)

Cosmos 1452 Rocket - Pass Details

Date: 19 May 2025
Orbit: 764 x 770 km, 74.1° (Epoch: 14 June)

Event Time Altitude Azimuth Distance (km) Brightness Sun altitude
Rises 17:24:13 0° 329° (NNW) 3,240 7.0 -17.4°
Reaches altitude 10° 17:26:52 10° 318° (NW) 2,310 6.1 -17.1°
Maximum altitude 17:31:18 29° 260° (W) 1,388 4.4 -16.6°
Enters shadow 17:32:30 26° 237° (WSW) 1,474 4.4 -16.5°
